Wind_Speed
46 47 48 48 48 49 50 50 50 51 51 51 51 51 51 51 51 52 52 52 52 53 54 54 54 56 55 55 55 56 57 58 58 58 59 60 61 62 62 64 65 66 65
46 46 47 48 48 49 49 49 50 49 49 49 50 50 50 50 50 50 50 51 51 51 52 52 53 54 54 54 55 55 56 56 57 57 58 60 61 61 61 61 63 64 64
44 45 45 47 48 48 48 48 48 48 48 48 48 48 48 49 49 49 49 49 49 50 50 51 51 52 53 53 53 53 54 55 55 56 56 58 60 60 60 61 62 62 62
43 44 45 45 46 47 47 47 47 46 46 46 47 47 47 47 47 47 47 48 48 48 48 49 49 50 51 51 52 52 53 53 54 54 55 56 58 59 59 59 60 60 61
42 43 43 44 45 46 46 46 46 45 45 45 45 45 45 45 45 45 46 46 46 46 46 47 48 48 48 49 50 51 51 51 52 53 53 54 56 57 58 58 58 59 60
41 41 42 42 44 44 44 45 45 45 45 44 44 44 43 43 43 44 44 44 44 44 44 45 47 47 46 47 47 48 50 51 50 50 51 52 54 55 56 56 57 57 58
40 40 41 42 43 43 43 44 44 45 44 44 43 43 42 42 42 42 42 42 42 43 43 43 44 44 44 45 46 47 48 49 50 50 49 50 52 53 54 54 54 55 55
40 41 41 42 42 43 43 44 45 45 44 43 42 41 41 41 41 41 41 41 41 41 41 41 42 42 43 43 44 45 46 47 48 49 49 49 49 51 53 53 53 53 53
41 41 41 41 42 42 42 43 43 43 42 41 40 40 40 40 40 40 40 39 39 40 40 40 40 40 41 42 43 44 45 45 46 47 48 48 49 50 51 52 51 52 51
40 41 41 41 42 41 41 41 40 40 39 39 39 39 39 38 38 38 39 38 38 38 38 39 40 40 40 41 42 42 43 44 45 46 47 48 47 47 49 50 50 50 50
40 41 41 40 40 39 39 39 38 37 37 36 36 36 36 36 36 36 37 37 37 36 36 37 38 39 39 39 40 40 41 42 43 44 45 45 46 46 46 48 48 48 49
39 39 39 38 38 37 37 37 36 34 34 34 34 34 34 35 35 34 35 35 35 35 35 36 36 37 37 38 38 39 40 40 40 42 43 43 43 43 44 45 46 47 47
37 36 36 36 36 35 35 34 33 33 33 32 32 32 33 33 33 34 33 34 35 35 35 35 35 36 36 37 37 38 38 39 39 40 41 41 41 42 43 45 45 45 45
35 35 34 34 34 34 33 32 31 31 31 31 31 31 31 31 32 32 32 33 33 34 34 34 34 34 35 36 36 37 38 38 38 39 40 40 40 41 42 43 44 45 44
33 33 33 33 33 32 31 31 30 30 30 30 29 29 30 30 31 31 31 32 32 33 33 33 34 34 34 34 35 36 37 37 37 38 38 39 39 39 40 41 42 43 42
32 32 32 31 31 30 30 30 29 29 29 29 28 28 28 28 29 30 31 31 31 32 32 32 32 32 32 33 34 34 35 35 36 36 36 36 37 37 38 39 39 40 40
31 31 31 30 29 29 29 29 28 28 29 29 28 28 28 28 28 29 29 30 30 31 31 31 31 31 31 32 32 33 33 33 33 34 33 34 34 35 36 37 37 38 39
31 30 30 29 28 28 28 27 27 27 28 29 29 28 28 27 27 28 28 28 29 29 29 29 30 30 31 31 31 32 32 32 32 32 31 31 32 33 34 34 34 35 37
30 29 29 28 28 28 27 27 27 27 27 28 28 28 27 27 26 26 27 27 27 28 28 28 29 29 29 30 30 30 30 31 31 30 31 30 30 30 32 32 32 33 34
29 28 28 27 27 27 27 26 26 27 27 27 27 27 26 26 26 26 25 26 27 27 27 27 27 28 27 28 28 28 28 28 28 28 29 29 29 29 30 30 31 31 32
28 28 27 27 26 26 26 26 26 26 26 26 26 26 25 25 25 25 25 25 25 26 26 25 25 26 26 26 27 27 26 26 27 27 28 28 28 28 29 29 29 30 30
28 27 27 26 26 26 25 25 25 26 26 26 25 25 25 24 24 24 24 24 25 25 24 24 24 25 25 26 26 25 25 25 25 25 26 27 27 28 28 29 29 29 29
27 27 26 26 26 26 25 25 25 26 26 26 25 25 24 23 23 23 23 23 23 23 23 23 23 24 24 24 24 24 24 24 24 24 24 25 25 26 27 27 27 27 27
26 26 26 26 25 25 25 25 26 26 26 26 25 24 23 23 23 23 23 23 23 23 23 22 23 23 22 22 22 22 22 23 23 23 23 23 24 24 25 25 25 25 25
26 25 25 25 25 25 25 26 26 26 26 25 24 23 23 23 23 23 23 22 22 22 22 22 22 22 22 21 20 20 21 21 22 22 22 22 23 23 23 23 23 23 23
24 24 24 24 25 25 25 25 25 25 24 24 24 23 23 23 23 22 22 22 21 22 22 22 22 21 20 20 20 20 20 20 21 21 20 20 21 21 21 21 21 21 21
Wind_Direction
282 281 281 281 282 282 283 283 282 281 280 278 278 277 276 276 275 273 271 269 268 266 266 266 265 264 263 262 261 260 260 260 258 256 254 254 253 253 253 253 252 252 252
282 283 282 282 283 284 285 285 283 282 281 280 278 278 277 276 275 274 271 269 268 267 266 266 266 264 263 263 262 261 261 260 259 256 255 255 254 253 253 252 252 252 252
283 284 285 285 285 285 286 286 285 284 282 280 280 279 277 276 275 274 271 269 268 267 266 266 266 264 263 263 262 261 261 260 260 258 257 256 255 254 253 252 251 251 252
286 286 286 286 286 286 286 286 286 285 283 281 280 280 278 276 275 274 272 271 269 268 266 266 266 264 263 263 262 262 261 261 260 259 258 256 256 255 254 253 253 252 252
288 288 287 287 287 287 287 286 286 285 283 282 281 280 278 277 275 274 273 272 269 268 267 266 266 265 265 264 263 263 263 262 261 261 259 257 255 255 254 253 253 253 253
289 289 288 288 288 288 287 287 286 285 284 283 281 280 278 277 276 275 273 272 270 269 268 267 267 266 266 265 263 263 264 263 262 261 260 257 255 255 254 253 253 253 252
290 290 290 289 289 288 288 287 286 285 284 283 282 281 280 278 276 275 273 272 272 270 269 268 267 266 265 265 264 264 263 263 263 262 261 259 257 256 255 254 253 253 252
290 291 291 291 290 290 289 288 287 286 284 282 281 280 280 278 277 275 274 273 273 271 270 269 268 266 266 265 265 264 264 263 263 262 262 261 259 257 256 254 253 253 253
291 292 292 292 292 291 292 291 289 287 284 281 280 280 280 279 277 275 274 273 273 272 270 269 268 268 267 267 266 266 265 264 264 263 262 261 260 259 257 256 254 253 253
293 293 293 294 294 293 292 293 291 288 284 282 281 281 280 279 278 276 274 273 273 272 270 270 270 269 268 268 268 267 266 265 264 263 261 259 259 259 258 256 255 255 254
294 294 294 294 294 294 294 293 291 288 285 283 282 282 281 281 279 277 276 274 273 272 272 272 272 271 270 269 269 268 268 266 264 262 260 260 259 259 258 257 256 256 255
296 295 295 295 295 296 297 294 291 288 286 283 283 282 282 281 280 278 276 275 274 273 273 272 272 272 271 270 271 270 268 266 264 263 261 260 260 259 258 258 257 256 256
297 297 296 296 297 297 297 295 291 289 287 284 283 283 282 282 281 279 277 276 275 274 274 273 273 272 272 272 271 271 269 267 265 264 262 261 260 260 259 258 256 256 256
297 297 296 296 297 297 297 295 292 291 289 286 285 284 283 282 281 280 278 276 275 276 275 273 273 274 274 273 272 272 270 268 266 264 263 262 261 260 260 259 257 256 256
297 297 296 297 297 297 297 296 294 294 293 290 287 286 284 282 281 281 279 276 276 277 276 274 273 274 274 274 274 273 271 270 268 266 265 263 261 260 260 259 257 256 256
296 297 297 296 296 297 297 297 296 295 293 292 291 289 286 284 283 282 281 279 278 277 277 275 274 274 274 274 274 273 272 270 269 267 267 265 263 262 261 260 258 258 257
295 296 297 297 295 296 297 297 297 295 294 292 292 291 289 287 284 282 282 281 279 278 277 276 275 275 275 275 275 273 272 272 270 268 267 265 263 263 262 261 261 260 259
296 296 295 295 295 295 295 295 295 294 294 293 294 294 292 289 287 284 283 283 281 280 279 278 277 276 276 276 276 274 273 272 271 268 267 266 265 264 263 262 262 261 260
296 296 295 294 294 295 295 294 295 296 296 295 295 295 293 290 288 287 285 286 284 282 281 280 279 278 278 278 277 276 274 272 270 267 266 266 267 266 264 263 264 264 263
295 295 294 293 294 295 295 295 297 298 298 298 297 296 294 291 289 288 287 288 287 286 284 282 281 280 279 279 278 277 275 273 270 268 267 267 267 268 266 264 265 266 265
293 293 293 293 294 295 296 296 297 299 300 300 299 299 296 292 289 288 288 289 289 288 286 285 284 282 280 279 279 277 274 273 271 269 268 267 268 268 267 266 267 267 266
292 292 292 293 295 296 297 297 299 300 301 301 300 299 298 296 292 291 291 292 293 291 288 286 284 283 281 280 279 277 275 274 272 270 269 268 269 269 268 267 268 267 265
292 292 292 293 295 295 296 297 299 300 301 300 299 298 297 295 293 293 293 295 294 293 291 289 287 286 284 282 279 277 275 274 273 271 270 271 270 270 270 269 267 266 265
292 292 292 293 295 296 297 298 299 300 300 299 298 297 296 295 295 294 293 294 294 294 293 291 290 288 287 285 282 278 276 275 273 271 271 271 272 272 271 268 266 266 265
293 292 292 293 294 296 298 298 299 299 298 298 297 295 294 294 294 295 295 295 294 293 293 292 291 289 287 285 282 280 278 276 274 272 272 272 273 273 270 268 266 266 265
294 294 294 295 295 297 298 298 299 298 297 297 296 295 294 294 294 295 295 295 294 294 295 294 292 289 287 285 282 281 280 278 276 274 274 273 274 273 270 268 266 266 266
Height
5579 5576 5573 5570 5567 5564 5560 5557 5553 5550 5547 5545 5543 5540 5538 5536 5534 5533 5531 5531 5531 5531 5531 5532 5532 5533 5533 5534 5535 5537 5539 5541 5545 5549 5550 5552 5554 5558 5561 5564 5568 5572 5576
5566 5563 5560 5557 5553 5550 5547 5543 5540 5537 5534 5531 5528 5526 5524 5521 5519 5518 5517 5516 5516 5516 5516 5516 5516 5517 5518 5518 5519 5521 5522 5524 5527 5531 5533 5534 5537 5540 5543 5546 5550 5553 5557
5553 5550 5546 5543 5540 5537 5533 5530 5526 5523 5520 5517 5514 5512 5509 5507 5505 5503 5502 5502 5501 5501 5501 5501 5501 5501 5502 5503 5504 5505 5506 5508 5510 5512 5516 5517 5520 5522 5525 5528 5531 5535 5538
5540 5537 5534 5530 5527 5524 5520 5517 5513 5510 5506 5504 5501 5498 5496 5493 5491 5490 5488 5487 5487 5486 5486 5485 5485 5486 5487 5488 5488 5490 5491 5492 5494 5496 5499 5501 5503 5504 5507 5510 5513 5516 5520
5528 5525 5521 5518 5514 5510 5507 5504 5500 5497 5493 5490 5488 5485 5482 5480 5478 5476 5475 5474 5473 5472 5471 5471 5471 5471 5472 5472 5473 5475 5475 5477 5478 5479 5482 5484 5486 5487 5490 5492 5495 5499 5502
5516 5513 5509 5505 5501 5498 5494 5490 5487 5484 5481 5478 5475 5472 5469 5467 5465 5463 5462 5461 5460 5459 5458 5458 5457 5457 5457 5458 5459 5459 5460 5461 5463 5464 5466 5468 5470 5471 5472 5474 5478 5482 5486
5505 5501 5497 5493 5489 5485 5481 5477 5473 5470 5467 5464 5462 5459 5457 5455 5453 5451 5449 5448 5447 5446 5445 5445 5444 5444 5444 5444 5444 5445 5446 5446 5447 5449 5450 5451 5453 5456 5457 5459 5461 5463 5467
5493 5489 5485 5481 5476 5472 5468 5464 5460 5457 5454 5451 5449 5447 5444 5442 5440 5438 5437 5436 5434 5433 5433 5432 5432 5431 5431 5431 5431 5431 5432 5432 5433 5434 5436 5437 5437 5438 5440 5442 5444 5447 5450
5481 5477 5472 5468 5464 5459 5455 5451 5447 5443 5440 5438 5436 5434 5432 5430 5428 5426 5424 5423 5422 5421 5420 5420 5419 5419 5418 5418 5418 5418 5419 5419 5419 5419 5421 5422 5422 5423 5424 5426 5429 5431 5435
5468 5464 5460 5456 5451 5447 5443 5438 5434 5430 5427 5425 5423 5421 5420 5418 5416 5414 5412 5412 5411 5410 5409 5408 5407 5406 5406 5404 5404 5405 5405 5405 5406 5406 5406 5407 5408 5410 5410 5412 5414 5416 5419
5456 5452 5448 5443 5439 5435 5430 5426 5422 5418 5415 5413 5411 5409 5408 5406 5404 5402 5401 5399 5399 5398 5397 5396 5395 5394 5394 5393 5392 5392 5392 5392 5392 5392 5393 5394 5395 5396 5397 5398 5400 5401 5404
5444 5440 5435 5431 5427 5423 5418 5414 5410 5407 5404 5402 5400 5398 5396 5394 5392 5391 5389 5388 5387 5387 5386 5385 5384 5383 5382 5381 5380 5380 5379 5379 5379 5379 5380 5381 5382 5383 5384 5385 5386 5387 5389
5433 5429 5424 5420 5416 5412 5408 5403 5400 5396 5394 5392 5389 5388 5385 5383 5381 5380 5378 5377 5376 5375 5375 5374 5373 5372 5371 5370 5369 5368 5367 5367 5367 5367 5368 5368 5369 5370 5370 5372 5373 5374 5376
5423 5418 5414 5410 5406 5402 5398 5394 5390 5387 5384 5382 5380 5378 5375 5373 5371 5369 5368 5367 5365 5364 5364 5363 5362 5361 5360 5359 5358 5357 5356 5355 5355 5355 5356 5356 5356 5357 5358 5358 5360 5361 5363
5413 5409 5405 5401 5397 5393 5389 5385 5382 5378 5375 5373 5370 5368 5366 5364 5361 5359 5357 5356 5355 5354 5353 5352 5351 5350 5349 5348 5347 5346 5345 5344 5344 5344 5344 5344 5344 5345 5345 5346 5347 5348 5350
5404 5400 5396 5392 5388 5384 5380 5377 5373 5370 5367 5364 5361 5359 5357 5355 5352 5350 5348 5346 5345 5344 5343 5342 5341 5340 5339 5337 5336 5335 5334 5333 5332 5332 5332 5332 5333 5333 5334 5334 5335 5336 5338
5395 5391 5387 5383 5380 5376 5373 5369 5366 5362 5359 5356 5353 5351 5348 5346 5343 5341 5339 5337 5335 5334 5333 5331 5330 5329 5328 5327 5326 5325 5324 5323 5322 5321 5321 5322 5322 5322 5322 5323 5324 5325 5326
5385 5382 5378 5375 5372 5368 5365 5362 5358 5355 5352 5348 5345 5343 5340 5337 5335 5332 5330 5328 5327 5325 5323 5322 5320 5319 5318 5317 5316 5315 5313 5312 5312 5311 5311 5311 5312 5312 5312 5312 5313 5313 5314
5376 5373 5370 5367 5364 5360 5357 5354 5351 5348 5344 5341 5338 5334 5332 5329 5326 5324 5322 5320 5318 5316 5314 5313 5311 5310 5309 5307 5306 5305 5304 5303 5302 5302 5302 5302 5302 5302 5302 5302 5302 5303 5303
5367 5364 5361 5358 5355 5352 5349 5346 5343 5340 5337 5333 5330 5327 5324 5321 5319 5316 5314 5312 5310 5308 5306 5304 5302 5301 5300 5299 5297 5296 5295 5294 5293 5293 5293 5293 5293 5293 5293 5293 5293 5292 5293
5358 5355 5353 5350 5347 5344 5341 5338 5335 5332 5329 5326 5322 5319 5316 5314 5311 5309 5307 5305 5302 5300 5298 5296 5295 5293 5292 5290 5289 5288 5287 5286 5285 5285 5284 5284 5284 5284 5284 5283 5283 5283 5283
5349 5347 5344 5342 5339 5336 5333 5331 5328 5325 5321 5318 5315 5312 5309 5306 5304 5302 5300 5298 5295 5293 5291 5289 5287 5286 5284 5283 5281 5280 5279 5278 5277 5277 5276 5276 5276 5275 5275 5275 5274 5274 5274
5341 5338 5336 5334 5331 5328 5326 5323 5320 5317 5314 5311 5308 5305 5302 5300 5297 5295 5293 5291 5288 5286 5284 5282 5280 5279 5277 5275 5273 5272 5271 5270 5270 5269 5269 5268 5268 5267 5266 5266 5266 5266 5266
5332 5330 5328 5326 5323 5321 5318 5315 5312 5310 5307 5304 5301 5298 5296 5293 5291 5289 5286 5284 5282 5280 5278 5276 5274 5272 5270 5268 5266 5265 5264 5263 5262 5262 5261 5261 5260 5259 5259 5258 5258 5258 5258
5324 5322 5320 5317 5315 5313 5310 5307 5305 5302 5299 5297 5294 5291 5289 5287 5284 5282 5280 5278 5276 5273 5271 5269 5267 5265 5263 5261 5260 5258 5257 5256 5255 5254 5254 5253 5252 5252 5251 5251 5251 5251 5251
5316 5314 5312 5309 5307 5305 5302 5300 5297 5294 5292 5289 5287 5285 5282 5280 5278 5276 5273 5271 5269 5267 5265 5263 5260 5258 5257 5255 5253 5252 5251 5249 5248 5247 5247 5246 5245 5245 5244 5244 5244 5244 5244